User: anonymous   Login
Location: Unspecified
(0.0000°N, 0.0000°E)
Time: 12:20:24
(UTC+02:00)
Language:

Meteor 2-8 Rocket - Orbit

View from above orbital plane
View from above orbital plane
View from above satellite
View from above satellite

Ground track
Ground track

The orbit data is extracted from the following two-line orbital elements,

1 13114U 82025B   15117.50240039  .00000050  00000-0  31368-4 0  9995
2 13114 082.5371 104.7606 0014446 180.5267 309.0402 13.84641774672233
Epoch (UTC): 27 April 2015 12:03:27
Eccentricity: 0.0014446
inclination: 82.5371°
perigee height: 937 km
apogee height: 958 km
right ascension of ascending node: 104.7606°
argument of perigee: 180.5267°
revolutions per day: 13.84641774
mean anomaly at epoch: 309.0402°
orbit number at epoch: 67223

The dashed part of the orbit path shows where the satellite is in the earth's shadow,  

DLR